Location: Baia Mare
(47.6567°N, 23.5850°E)
Time: 13:30:49
(UTC+03:00)

ISS - Pass Details

Date: 22 July 2019
Orbit: 409 x 418 km, 51.6° (Epoch: 21 July)

Event Time Altitude Azimuth Distance (km) Brightness Sun altitude
Rises 00:50:03 0° 289° (WNW) 2,352 0.4 -21.3°
Reaches altitude 10° 00:52:12 10° 295° (WNW) 1,487 -0.5 -21.4°
Maximum altitude 00:55:26 45° 10° (N) 570 -2.7 -21.5°
Enters shadow 00:56:38 30° 64° (ENE) 765 -2.3 -21.5°
